Погода в Парге

Греция     39°17′12″N   20°24′00″E
темп.,
°C
ветер,
м/с
пор.,
м/с
влажн.,
%
обл.,
%
осадки,
мм/ч
давл.,
гПа
погр.,
м
6 мая, чт
чт600:00+14в22885 0.5 1015110
03:00+14ссв118173 0.5 101549
06:00+14ююв117762 0.0 101457
09:00+17зюз016931 0.0 1015263
12:00+19зюз326548 0.0 1016592
15:00+19з3370100 0.0 1017546
18:00+19з227071 0.0 1015422
21:00+16сз1184100 0.0 101524
7 мая, пт
пт700:00+16всв228494 0.0 101530
03:00+15ссв0187100 0.0 101425
06:00+15всв2280100 0.0 101437
09:00+19в116995 0.0 101484
12:00+21зюз225976 0.0 1014291
15:00+21з225487 0.0 1013424
18:00+22зсз2250100 0.0 1012274
21:00+18ссз335858 0.0 101233
8 мая, сб
сб800:00+18св224693 0.0 101112
03:00+17с11545 0.0 101112
06:00+16в21512 0.0 101112
09:00+20ссз115064 0.0 1011124
12:00+22з44465 0.0 1011635
15:00+23зсз464814 0.0 1011652
18:00+23зсз45555 0.0 1011411
21:00+18ссз12774 0.0 101235
9 мая, вс
вс900:00+18в22742 0.0 101330
03:00+18св11710 0.0 101411
06:00+17св11740 0.0 101513
09:00+20в12605 0.0 1017207
12:00+23ююз23534 0.0 1018712
15:00+23зюз32582 0.0 1019596
18:00+21з22661 0.0 1019347
21:00+18в11750 0.0 101913
10 мая, пн
пн1000:00+18в22730 0.0 102015
03:00+16св22680 0.0 101932
06:00+15всв22670 0.0 101949
09:00+19всв00570 0.0 1019222
12:00+21зюз32570 0.0 1019556
15:00+21з33622 0.0 1018464
18:00+21зсз446611 0.0 1017433
21:00+18сз22832 0.0 101741